Overview Statistics Trail Chart Weather Telemetry Raw packets
 

This is the latest recevied weather packets stored in our database for station/object KN4AN. If no packets are shown the sender has not sent any weather packets the latest 10 day(s).

<< 90 91 92 93 94 95 96 >>
Time Temp. Humidity Pressure Rain* Wind** Luminosity Snow
1787888778 22.22° C 82% 1015.9 hPa 0 mm - 0 W/m² -
1787888474 22.22° C 83% 1016.2 hPa 0 mm - 0 W/m² -
1787888174 22.22° C 86% 1016.2 hPa 0 mm - 0 W/m² -
1787887869 22.22° C 93% 1016.1 hPa 0 mm - 0 W/m² -
1787887564 21.67° C 95% 1015.8 hPa 0 mm - 0 W/m² -
1787887260 21.67° C 96% 1015.6 hPa 0 mm - 0 W/m² -
1787886955 21.67° C 96% 1015.4 hPa 0 mm - 0 W/m² -
1787886654 21.67° C 96% 1015.4 hPa 0 mm - 0 W/m² -
1787886349 21.67° C 96% 1015.5 hPa 0 mm - 0 W/m² -
1787886045 21.67° C 95% 1015.6 hPa 0 mm - 0 W/m² -
1787885743 21.67° C 95% 1015.7 hPa 0 mm - 0 W/m² -
1787885437 21.67° C 95% 1015.7 hPa 0 mm - 0 W/m² -
1787885137 21.67° C 95% 1015.6 hPa 0 mm - 0 W/m² -
1787884832 21.67° C 95% 1015.9 hPa 0 mm - 0 W/m² -
1787884532 21.67° C 95% 1015.9 hPa 0 mm - 0 W/m² -
1787884228 21.67° C 95% 1015.7 hPa 0 mm - 0 W/m² -
1787883923 21.67° C 95% 1015.6 hPa 0 mm - 0 W/m² -
1787883618 21.67° C 94% 1015.5 hPa 0 mm - 0 W/m² -
1787883314 21.67° C 94% 1015.4 hPa 0 mm - 0 W/m² -
1787883012 21.67° C 95% 1015.6 hPa 0 mm - 0 W/m² -
1787882709 21.67° C 95% 1015.4 hPa 0 mm - 0 W/m² -
1787882405 21.67° C 96% 1015.5 hPa 0 mm - 0 W/m² -
1787882099 21.11° C 96% 1015.5 hPa 0 mm - 0 W/m² -
1787881795 21.11° C 96% 1015.4 hPa 0 mm - 0 W/m² -
1787881495 21.11° C 96% 1015.6 hPa 0 mm - 0 W/m² -

* Rain latest hour (hover to see other rain measurements)
** Current wind speed in m/s (hover to see current wind gust speed)